CDT,Max TemperatureF,Mean TemperatureF,Min TemperatureF,Max Dew PointF,MeanDew PointF,Min DewpointF,Max Humidity, Mean Humidity, Min Humidity, Max Sea Level PressureIn, Mean Sea Level PressureIn, Min Sea Level PressureIn, Max VisibilityMiles, Mean VisibilityMiles, Min VisibilityMiles, Max Wind SpeedMPH, Mean Wind SpeedMPH, Max Gust SpeedMPH,PrecipitationIn, CloudCover, Events, WindDirDegrees
2013-3-1,35,22,10,28,20,8,95,87,74,30.31,30.26,30.21,10,6,0,9,2,,0.00,3,Fog,351
2013-3-2,41,26,11,33,27,9,95,84,68,30.30,30.15,29.99,10,6,0,9,2,,0.00,3,Fog,153
2013-3-3,47,36,26,35,31,25,96,83,61,29.99,29.74,29.58,10,8,1,14,4,,0.00,0,,171
2013-3-4,42,34,26,33,25,13,96,69,47,30.15,29.82,29.58,10,9,4,30,12,37,0.00,3,,333
2013-3-5,37,28,20,21,16,13,81,62,45,30.34,30.27,30.15,10,10,10,33,19,41,0.00,1,,342
2013-3-6,37,28,18,27,21,15,88,75,61,30.34,30.20,30.02,10,10,10,21,8,25,0.00,0,,138
2013-3-7,46,36,26,32,27,23,92,77,57,30.05,30.02,29.98,10,10,7,17,10,22,0.00,0,,140
2013-3-8,54,41,28,50,37,27,94,82,64,30.05,29.91,29.73,10,8,4,16,7,23,0.00,3,,94
2013-3-9,58,44,31,54,40,27,97,89,75,29.85,29.65,29.53,10,7,0,31,17,39,0.00,8,Fog-Rain-Snow-Thunderstorm,50
2013-3-10,32,26,20,29,19,15,90,75,64,30.06,30.01,29.85,10,9,1,33,24,43,0.00,5,Snow,344
2013-3-11,55,36,18,30,22,14,87,67,32,30.05,29.94,29.85,10,10,10,28,10,37,0.00,1,,307
2013-3-12,43,34,23,28,17,9,90,54,25,30.32,30.21,30.05,10,10,10,37,14,43,0.00,0,,320
2013-3-13,62,42,21,34,24,15,89,55,28,30.32,30.23,30.11,10,10,10,20,6,26,0.00,2,,172
2013-3-14,73,54,36,38,33,30,83,49,20,30.18,30.10,30.03,10,10,2,14,7,18,0.00,0,,280
2013-3-15,79,58,36,38,33,25,80,45,14,30.03,29.84,29.71,10,10,7,22,9,24,0.00,0,,284
2013-3-16,45,38,32,37,26,20,85,65,47,30.08,30.02,29.90,10,10,10,20,11,25,0.00,5,,46
2013-3-17,39,33,27,33,27,22,94,82,66,30.02,29.83,29.63,10,9,2,20,11,24,0.06,7,Rain,137
2013-3-18,46,35,24,33,22,11,95,62,28,30.05,29.90,29.76,10,10,4,28,11,36,0.06,2,,322
2013-3-19,51,41,30,31,23,12,92,55,29,30.33,30.12,29.99,10,10,2,22,9,33,0.00,7,Rain-Snow,311
2013-3-20,46,30,14,20,14,8,86,53,26,30.39,30.21,29.94,10,10,10,15,7,23,0.00,1,,232
2013-3-21,47,38,29,28,19,15,87,51,32,29.93,29.81,29.71,10,10,0,22,15,29,0.00,4,Snow,125
2013-3-22,41,35,29,32,30,28,96,87,68,29.96,29.87,29.83,10,7,1,12,8,,0.00,7,Snow,126
2013-3-23,32,28,25,31,27,19,96,88,76,30.14,30.03,29.94,10,5,1,25,11,30,0.00,8,Snow,25
2013-3-24,36,26,16,19,15,9,86,67,37,30.20,30.13,30.07,10,10,10,30,15,37,0.00,2,,334
2013-3-25,32,24,17,16,13,10,86,67,45,30.33,30.27,30.20,10,10,7,22,13,30,0.00,2,Snow,337
2013-3-26,48,28,10,24,16,8,89,62,25,30.32,30.20,30.07,10,10,10,17,6,24,0.00,1,,169
2013-3-27,57,40,24,30,26,21,89,60,31,30.17,30.10,30.06,10,10,10,15,7,,0.00,1,,116
2013-3-28,65,44,24,34,27,22,92,55,22,30.17,30.13,30.06,10,9,3,16,5,23,0.00,1,,148
2013-3-29,70,50,30,48,36,26,88,60,32,30.16,30.07,29.96,10,9,2,20,7,28,0.19,2,Rain-Thunderstorm,143
2013-3-30,66,51,37,49,41,34,97,74,33,30.08,29.99,29.92,10,8,0,18,8,26,0.19,4,Fog-Rain-Thunderstorm,352
2013-3-31,68,50,33,40,33,27,93,60,25,30.12,30.01,29.85,10,10,10,33,11,41,0.00,2,,291